Home > Weather > Rarotonga > Past weeks

Flag for Cook Islands Past Weather in Rarotonga, Cook Islands — Yesterday and Last 2 Weeks

Now
70 °F

Mostly cloudy.


Feels Like: 70 °F
Forecast: 66 / 74 °F
Wind: 1 mph from South

Location: Rarotonga

Current Time: Aug 24, 2016 at 2:22:16 AM

Latest Report: Aug 24, 2016 at 2:00 AM


Visibility: N/A

Pressure: 29.95 "Hg

Humidity: 73%

Dew Point: 61 °F

Location of RarotongaLocation

Past Weather in Rarotonga — Graph

°F

Rarotonga Temperature Yesterday

Maximum temperature yesterday: 72 °F (at 12:00 AM)
Minimum temperature yesterday: 66 °F (at 9:00 AM)
Average temperature yesterday: 69 °F

High & Low Weather Summary for the Past Weeks

 TemperatureHumidityPressure
High82 °F (Aug 14, 2:00 PM)100% (Aug 11, 1:00 AM)30.09 "Hg (Aug 11, 1:00 AM)
Low66 °F (Aug 14, 12:00 AM)55% (Aug 14, 2:00 PM)29.80 "Hg (Aug 20, 6:00 PM)
Average75 °F83%29.96 "Hg
* Reported Aug 9 1:00 AM — Aug 24 1:00 AM, Rarotonga, Weather by CustomWeather, © 2016

Note: Actual official high and low records may vary slightly from our data, if they occured in-between our weather recording intervals... More about our weather records

Advertising

Rarotonga Weather History for the Previous 24 Hours

Scroll right to see more
 ConditionsComfort  
Time TempWeatherWind HumidityBarometerVisibility
1:00 AM
Wed, Aug 24
70 °FMostly cloudy.5 mph78%29.95 "HgN/A
12:00 AM70 °FMostly cloudy.6 mph78%29.95 "HgN/A
11:00 PM
Tue, Aug 23
70 °FMostly cloudy.3 mph73%29.95 "HgN/A
10:00 PM70 °FDrizzle. Mostly cloudy.5 mph83%29.95 "HgN/A
9:00 PM68 °FSprinkles. Overcast.3 mph88%29.92 "HgN/A
8:00 PM68 °FSprinkles. Mostly cloudy.2 mph94%29.95 "HgN/A
7:00 PM68 °FSprinkles. Mostly cloudy.3 mph94%29.92 "HgN/A
4:00 PM70 °FDrizzle. Overcast.N/A83%29.89 "HgN/A
3:00 PM68 °FPassing clouds.1 mph88%29.89 "HgN/A
2:00 PM68 °FDrizzle. Overcast.2 mph88%29.89 "HgN/A
1:00 PM66 °FSprinkles. Overcast.5 mph94%29.95 "HgN/A
12:00 PM70 °FSprinkles. Overcast.1 mph88%29.95 "HgN/A
11:00 AM70 °FScattered showers. Partly sunny.5 mph78%29.95 "HgN/A
10:00 AM66 °FSprinkles. Broken clouds.6 mph83%29.95 "HgN/A
9:00 AM66 °FRain. Cloudy.N/A94%29.95 "HgN/A
8:00 AM70 °FLots of rain. Mostly cloudy.3 mph94%29.92 "HgN/A
7:00 AM70 °FBroken clouds.1 mph88%29.92 "HgN/A
6:00 AM70 °FPartly cloudy.2 mph88%29.89 "HgN/A
5:00 AM70 °FPartly cloudy.1 mph88%29.89 "HgN/A
4:00 AM72 °FPartly cloudy.1 mph73%29.89 "HgN/A
3:00 AM72 °FPartly cloudy.3 mph73%29.92 "HgN/A
2:00 AM72 °FPartly cloudy.3 mph73%29.92 "HgN/A
Weather by CustomWeather, © 2016

See weather overviewHow to use our weather pages